Lid_Strength_Index
4 7 3 8 11 13 15 15 14 14 14 13 13 13 14 15 15 13 11 11 11 11 11 12 5 5 5 3 4 3 2 1 -1 -1 -1 -1 -1 -2 -1 -1 -1 -2 -1 -1 -1 -2 -2 -2 -2
6 4 7 11 14 16 17 15 16 15 14 13 13 14 14 16 13 12 11 11 11 11 11 10 5 5 5 5 4 4 4 2 1 -0 -1 -1 -1 -1 -1 -1 -1 -1 -2 -2 -2 -2 -2 -2 -2
5 5 9 13 16 17 16 16 16 14 14 13 14 14 15 15 13 12 10 10 11 11 11 8 4 3 5 5 5 4 4 4 2 1 0 -0 -1 -1 -2 -1 -1 -1 -1 -1 -2 -2 -2 -2 -2
5 8 10 13 15 17 17 17 15 15 14 14 14 16 14 13 13 11 10 10 11 11 11 8 4 4 4 6 6 5 5 4 4 2 1 0 0 -0 -1 -1 -1 -1 -1 -1 -1 -2 -2 -2 -2
8 11 14 15 17 17 17 17 16 16 16 15 14 16 16 13 11 10 10 10 10 11 10 10 5 4 4 4 6 6 5 5 5 4 3 2 1 1 -0 -1 -1 -1 -1 -1 -1 -2 -2 -2 -2
11 12 16 17 16 16 17 17 17 17 17 16 16 16 15 12 11 11 10 10 10 10 10 10 8 6 5 5 4 6 7 6 6 5 4 3 2 2 1 1 -1 -1 -1 -1 -1 -2 -2 -2 -2
13 14 16 16 17 17 17 16 17 17 17 17 16 16 14 12 11 10 10 10 10 10 10 10 10 9 7 7 5 5 6 8 8 7 7 5 4 4 3 2 1 -1 -1 -1 -1 -1 -1 -2 -2
12 14 17 18 18 17 17 17 16 17 17 15 15 16 15 12 10 10 10 10 10 10 10 10 10 10 10 9 7 6 6 6 8 9 8 8 6 6 5 3 3 0 -1 -1 -1 -1 -1 -1 -1
12 17 18 18 18 17 17 17 16 16 17 16 15 14 12 11 11 11 11 10 9 9 9 9 10 10 10 10 9 8 8 7 7 10 10 9 8 9 8 5 4 3 -1 -1 -1 -1 -1 -1 -1
16 18 18 17 17 18 17 17 17 17 17 16 15 13 11 11 11 11 11 11 11 10 9 9 9 10 10 10 10 10 10 9 10 9 11 9 9 10 8 6 5 3 2 -0 -1 -1 -1 -0 -1
17 19 17 17 16 17 17 18 16 18 18 16 15 14 12 12 12 11 11 11 11 10 8 8 9 9 10 11 10 10 10 10 10 10 9 10 9 8 8 8 6 5 5 -0 -1 -1 -1 -1 -1
19 17 16 17 17 17 18 17 18 17 16 15 14 13 12 13 12 11 11 11 10 10 8 8 7 8 9 9 10 11 11 10 10 10 10 9 11 9 10 8 7 6 6 0 -0 -0 -0 -0 -0
19 18 17 17 18 18 17 18 18 18 16 15 14 13 13 13 12 11 10 10 10 10 9 8 7 7 8 9 10 10 11 11 10 10 10 9 10 10 10 11 9 8 6 5 0 0 0 0 1
18 18 18 18 18 18 19 19 18 17 16 15 15 14 13 13 12 12 11 11 10 10 9 8 8 7 7 8 9 10 10 11 11 10 10 10 9 10 10 10 10 8 7 6 0 1 1 1 1
18 19 19 19 19 19 19 19 19 17 16 16 15 14 13 13 12 12 11 11 11 11 10 9 8 7 8 8 9 9 10 11 11 11 10 10 10 10 10 10 11 10 8 7 1 1 1 1 1
21 21 21 20 19 19 19 19 18 17 18 17 16 15 14 13 13 12 11 11 10 11 11 10 9 9 9 9 9 9 9 10 10 10 10 10 10 10 10 10 11 11 9 8 5 1 3 2 1
22 23 23 21 20 20 20 21 19 18 18 18 17 16 15 14 13 12 12 11 11 11 11 11 10 10 10 10 9 9 9 9 10 10 11 11 11 10 10 9 8 9 9 8 8 2 2 2 2
24 24 24 24 21 21 22 22 20 18 18 18 18 18 17 16 14 13 12 12 11 11 11 11 11 11 11 10 10 10 10 9 9 10 11 11 11 11 10 10 9 7 8 8 7 3 2 2 2
23 25 26 24 22 23 23 22 20 18 19 19 18 17 17 16 14 13 13 12 12 12 13 13 12 12 11 11 11 11 11 11 10 10 10 11 11 11 11 10 10 9 10 9 8 6 2 3 3
24 25 25 23 22 22 23 23 21 20 19 19 18 18 17 17 15 14 14 14 13 13 13 13 13 12 12 12 11 11 11 11 11 10 11 11 11 11 11 11 11 10 11 10 9 8 3 3 3
23 25 26 25 23 22 25 22 21 19 20 19 18 18 17 17 16 15 15 14 14 14 13 12 12 12 12 12 12 12 11 11 11 11 11 11 12 12 12 11 11 10 10 10 10 9 3 5 4
25 23 24 24 25 25 25 24 23 22 21 20 19 19 17 17 16 16 15 15 14 14 13 13 12 13 12 12 13 14 13 13 12 11 11 11 12 12 12 12 12 11 11 11 10 8 7 4 5
23 23 24 25 28 29 26 27 22 23 22 20 19 18 18 17 17 16 15 15 14 13 13 13 12 13 13 12 13 13 14 13 12 12 12 12 12 12 12 12 12 11 10 11 11 9 8 3 4
22 25 25 27 28 28 30 27 22 22 21 21 20 19 18 17 17 16 15 15 14 14 14 13 13 13 13 13 13 13 14 14 14 13 13 12 12 12 12 13 12 11 10 10 11 9 8 7 3
24 25 25 24 26 24 30 28 22 20 21 20 19 19 18 18 18 17 16 15 15 14 14 14 13 14 13 14 14 13 14 14 14 14 14 13 13 12 12 13 13 12 10 10 10 10 9 7 4
27 28 25 27 26 26 28 29 19 21 21 21 20 20 19 19 17 17 16 16 16 15 15 15 14 15 14 14 14 14 14 14 14 14 14 13 13 12 11 12 13 12 11 11 9 9 9 7 5
25 26 26 32 35 32 27 25 21 21 22 22 22 20 20 19 18 17 17 16 16 16 15 15 15 15 15 15 15 15 14 14 14 13 13 14 13 12 12 11 12 12 12 11 10 11 10 8 6
26 25 27 30 28 28 27 29 23 21 19 21 21 21 20 20 19 18 17 16 16 16 16 15 15 15 15 15 15 14 13 12 12 12 13 13 14 12 12 11 12 12 13 12 12 12 11 10 8
28 31 30 28 30 29 31 25 22 21 20 21 20 20 21 21 20 19 18 17 16 16 16 16 15 15 16 15 15 14 12 12 11 11 12 13 14 13 13 12 12 12 13 12 11 11 12 10 8
29 29 29 25 28 35 34 30 19 21 21 24 23 22 22 22 21 20 19 18 17 17 17 17 16 16 16 16 14 13 12 11 11 11 11 12 14 14 13 13 12 12 13 13 13 13 11 11 9